Location: Chagrin Falls Park
(41.4139°N, 81.3865°W)
Time: 22:46:32
(UTC+00:00)

Cosmos 2058 Rocket - Pass Details

Date: 29 October 2020
Orbit: 610 x 640 km, 82.5° (Epoch: 28 November)

Event Time Altitude Azimuth Distance (km) Brightness Sun altitude
Rises 23:07:20 0° 182° (S) 2,913 6.7 -8.8°
Reaches altitude 10° 23:09:33 10° 181° (S) 2,013 5.8 -9.2°
Maximum altitude 23:14:01 77° 96° (E) 659 3.1 -10.0°
Drops below altitude 10° 23:18:33 10° 11° (N) 2,039 5.5 -10.8°
Sets 23:20:48 0° 10° (N) 2,953 6.4 -11.3°
